Waterloo, IA

10:55 PM CST on December 14, 2017 (GMT -0600)
Waterloo Municipal

Weather History for KALO - March, 2013

Change the Weather History Date:

Friday, March 22, 2013

  Actual Average Record
Temperature  
Mean Temperature 25 °F 38 °F  
Max Temperature 36 °F 49 °F 81 °F (1907)
Min Temperature 13 °F 28 °F 5 °F (1940)
Degree Days  
Heating Degree Days 40 27  
Month to date heating degree days 906 686  
Since 1 July heating degree days 6116 6105  
Cooling Degree Days 0 0  
Month to date cooling degree days 0 0  
Year to date cooling degree days 0 0  
Moisture  
Dew Point 15 °F    
Average Humidity 70    
Maximum Humidity 96    
Minimum Humidity 44    
Precipitation  
Precipitation 0.00 in 0.07 in 1.72 in (1966)
Month to date precipitation 2.45 1.34  
Year to date precipitation 5.53 3.16  
Snow  
Snow 0.00 in 0.10 in 6.00 in (1916)
Month to date snowfall 10.0 3.5  
Since 1 July snowfall 47.1 32.4  
Snow Depth T in    
Sea Level Pressure  
Sea Level Pressure 30.09 in    
Wind  
Wind Speed 4 mph (NNE)    
Max Wind Speed 8 mph    
Max Gust Speed 12 mph    
Visibility 10 miles    
Events      
T = Trace of Precipitation, MM = Missing Value Source: NWS Daily Summary

Daily Weather History Graph

Daily Weather History Graph

Search for Another Location

Airport or City:

Trip Planner

Search our weather history database for the weather conditions in past years. The results will help you decide how hot, cold, wet, or windy it might be!

Date:

Astronomy

Mar. 22, 2013 Rise Set
Actual Time 7:08 AM CDT 7:24 PM CDT
Civil Twilight 6:40 AM CDT 7:52 PM CDT
Nautical Twilight 6:07 AM CDT 8:25 PM CDT
Astronomical Twilight 5:34 AM CDT 8:59 PM CDT
Moon 2:47 PM CDT (3/22) 4:15 AM CDT (3/22)
Length of Visible Light 13h 11m
Length of Day
12h 15m
Waxing Gibbous, 77% of the Moon is Illuminated
Mar 22
Waxing Gibbous
Mar 27
Full
Apr 2
Last Quarter
Apr 10
New
Apr 18
First Quarter

Hourly Weather History & Observations

Time (CDT) Temp. Windchill Dew Point Humidity Pressure Visibility Wind Dir Wind Speed Gust Speed Precip Events Conditions
12:54 AM 17.1 °F 8.7 °F 10.9 °F 77% 30.11 in 10.0 mi North 5.8 mph - N/A   Clear
1:54 AM 17.1 °F 8.7 °F 10.9 °F 77% 30.11 in 10.0 mi North 5.8 mph - N/A   Clear
2:54 AM 18.0 °F - 12.0 °F 78% 30.11 in 10.0 mi Calm Calm - N/A   Clear
3:54 AM 17.1 °F - 12.0 °F 81% 30.10 in 10.0 mi Calm Calm - N/A   Clear
4:54 AM 15.1 °F - 12.0 °F 88% 30.10 in 10.0 mi Calm Calm - N/A   Clear
5:54 AM 14.0 °F - 12.0 °F 92% 30.10 in 10.0 mi Calm Calm - N/A   Clear
6:54 AM 12.9 °F 6.9 °F 10.0 °F 88% 30.11 in 10.0 mi WSW 3.5 mph - N/A   Clear
7:54 AM 16.0 °F 10.4 °F 10.9 °F 81% 30.12 in 10.0 mi NW 3.5 mph - N/A   Clear
8:54 AM 19.9 °F 13.4 °F 12.9 °F 74% 30.11 in 10.0 mi NE 4.6 mph - N/A   Clear
9:54 AM 24.1 °F 17.0 °F 12.9 °F 62% 30.10 in 10.0 mi ENE 5.8 mph - N/A   Clear
10:54 AM 26.1 °F 19.4 °F 12.9 °F 58% 30.09 in 10.0 mi ENE 5.8 mph - N/A   Clear
11:54 AM 28.9 °F 23.9 °F 14.0 °F 54% 30.09 in 10.0 mi Variable 4.6 mph - N/A   Clear
12:54 PM 30.0 °F 24.1 °F 14.0 °F 51% 30.08 in 10.0 mi NE 5.8 mph - N/A   Clear
1:54 PM 32.0 °F 28.7 °F 16.0 °F 52% 30.07 in 10.0 mi Variable 3.5 mph - N/A   Clear
2:54 PM 33.1 °F - 15.1 °F 48% 30.06 in 10.0 mi Calm Calm - N/A   Clear
3:54 PM 35.1 °F 30.1 °F 18.0 °F 50% 30.06 in 10.0 mi NNW 5.8 mph - N/A   Clear
4:54 PM 35.1 °F 32.2 °F 16.0 °F 46% 30.05 in 10.0 mi Variable 3.5 mph - N/A   Clear
5:54 PM 33.1 °F 30.0 °F 17.1 °F 52% 30.06 in 10.0 mi NNE 3.5 mph - N/A   Partly Cloudy
6:54 PM 30.9 °F 25.2 °F 21.0 °F 67% 30.06 in 10.0 mi NE 5.8 mph - N/A   Scattered Clouds
7:54 PM 30.0 °F 26.5 °F 19.9 °F 66% 30.09 in 10.0 mi NNE 3.5 mph - N/A   Overcast
8:54 PM 28.9 °F 22.8 °F 21.0 °F 72% 30.09 in 10.0 mi NE 5.8 mph - N/A   Overcast
9:54 PM 28.9 °F 22.8 °F 19.9 °F 69% 30.09 in 10.0 mi NNE 5.8 mph - N/A   Clear
10:54 PM 28.0 °F 20.8 °F 19.9 °F 72% 30.11 in 10.0 mi North 6.9 mph - N/A   Partly Cloudy
11:54 PM 28.0 °F 21.7 °F 21.0 °F 75% 30.11 in 10.0 mi North 5.8 mph - N/A   Overcast